WILDFIRE 6

导读

WILDFIRE 6是美国于2023年9月2日发射的野火监测卫星,属于低地球轨道立方体卫星星座的组成部分。卫星搭载专为野火探测设计的热红外传感器,可捕获热成像数据,依托卫星网络实现对全球野火的高频重访监测,能为应急响应、野火管理提供关键的天基热监测情报,助力提升野火预警与处置能力,应对气候变化背景下日益严峻的野火威胁。

Basic Information
目录编号:
57763
目录名称:
WILDFIRE 6
国际标识:
2023-133G
轨道中心:
EARTH
卫星名称:
WILDFIRE 6
卫星全名:
--
卫星状态:
在轨 (已飞行1108 天)
发射日期:
2023-09-02 UTC
国别 :
美国 (US)
星等 :
--
This satellite is enrolled in the Space Conjunction Data Service (SCDS) and the current flight risk assessment level is: No High Risk
Orbit Information
数据来源 国际轨道数据 AOE轨道数据
星历时间 2026-09-14T02:53:16+0800
12小时前
查看轨道信息
2026-09-12T23:00:00+0800
1天前
查看轨道信息
半长轴 7321.944km 7321.901km
偏心率 0.0007278 0.0007077
轨道倾角 80.992° 80.993°
近地点辐角 134.634° 133.051°
升交点赤经 282.021° 283.139°
平近点角 225.541° 193.754°
近地点 938.478km 938.582km
远地点 949.136km 948.946km
周期 103.920分钟 103.919分钟
每日圈数 13.856808 13.856929
Detailed Information
使用方式:
暂无
2D Orbit Map
3D Orbit Map
Orbit Altitude Analysis Chart
Orbit Inclination Analysis Chart
Orbit Comprehensive Analysis Chart
View Comprehensive Chart
Conjunction Data List
Event ID Objects TCA Miss Dist (km) Collision Risk Probability Collision Risk Index (CRI) Action
CDM_260915-180603-373705-776323
2026-09-15T
18:06:27+0000
1.456 km
极远距离
7.268175E-6 低风险 0.52
Miss Distance Evolution Trend with All Objects Subscribe to Flight Safety Assessment
Collision Probability Evolution Trend with All Objects Subscribe to Flight Safety Assessment